Weather History for Kirksville, MO

Change the Weather History Date:

Friday, March 1, 2013

  Actual Average Record
Temperature  
Mean Temperature 27 °F 34 °F  
Max Temperature 30 °F 44 °F 75 °F (1992)
Min Temperature 23 °F 25 °F -10 °F (1962)
Degree Days  
Heating Degree Days 38 31  
Month to date heating degree days 38 31  
Since 1 July heating degree days 4418 4564  
Cooling Degree Days 0 0  
Month to date cooling degree days 0 0  
Year to date cooling degree days 0 0  
Moisture  
Dew Point 21 °F    
Average Humidity 78    
Maximum Humidity 81    
Minimum Humidity 74    
Precipitation  
Precipitation 0.01 in 0.08 in 0.45 in (1953)
Month to date precipitation 0.01 0.08  
Year to date precipitation 5.46 2.88  
Sea Level Pressure  
Sea Level Pressure 30.20 in    
Wind  
Wind Speed 10 mph (North)    
Max Wind Speed 14 mph    
Max Gust Speed 17 mph    
Visibility 7 miles    
Events Snow    
T = Trace of Precipitation, MM = Missing Value Source: NWS Daily Summary

Daily Weather History Graph

Daily Weather History Graph

Search for Another Location

Airport:

Trip Planner

Search our weather history database for the weather conditions in past years. The results will help you decide how hot, cold, wet, or windy it might be!

Date:

Astronomy

Mar. 01, 2013 Rise Set
Actual Time 6:43 AM CST 6:02 PM CST
Civil Twilight 6:15 AM CST 6:29 PM CST
Nautical Twilight 5:44 AM CST 7:00 PM CST
Astronomical Twilight 5:13 AM CST 7:32 PM CST
Moon 10:36 PM CST (3/1) 8:30 AM CST (3/1)
Length of Visible Light 12h 13m
Length of Day
11h 19m
Waning Gibbous, 83% of the Moon is Illuminated
Mar 1
Waning Gibbous
Mar 4
Last Quarter
Mar 11
New
Mar 19
First Quarter
Mar 27
Full

Hourly Weather History & Observations

Time (CST) Temp. Windchill Dew Point Humidity Pressure Visibility Wind Dir Wind Speed Gust Speed Precip Events Conditions
12:12 AM 28.4 °F 21.2 °F 21.2 °F 74% 30.12 in 10.0 mi NW 6.9 mph - N/A   Overcast
12:55 AM 27.0 °F 20.5 °F 21.9 °F 81% 30.17 in 9.0 mi NW 5.8 mph - N/A   Overcast
1:55 AM 27.0 °F 18.7 °F 21.9 °F 81% 30.17 in 9.0 mi NW 8.1 mph - N/A   Overcast
2:55 AM 27.0 °F 18.0 °F 21.9 °F 81% 30.16 in 9.0 mi NW 9.2 mph - N/A   Overcast
3:55 AM 27.0 °F 18.0 °F 21.0 °F 78% 30.15 in 10.0 mi NNW 9.2 mph - N/A   Overcast
4:29 AM 26.6 °F 18.2 °F 21.2 °F 80% 30.11 in 9.0 mi NNW 8.1 mph - N/A   Overcast
4:55 AM 26.1 °F 16.8 °F 21.9 °F 84% 30.16 in 8.0 mi NW 9.2 mph - N/A   Overcast
5:15 AM 26.6 °F 18.2 °F 21.2 °F 80% 30.11 in 8.0 mi NW 8.1 mph - N/A   Overcast
5:55 AM 26.6 °F 17.5 °F 21.2 °F 80% 30.12 in 8.0 mi NNW 9.2 mph - N/A   Overcast
6:55 AM 26.1 °F 17.6 °F 21.9 °F 84% 30.18 in 3.0 mi NW 8.1 mph - 0.00 in Snow Light Snow
7:03 AM 26.6 °F 16.8 °F 21.2 °F 80% 30.13 in 2.5 mi NW 10.4 mph - 0.00 in Snow Light Snow
7:19 AM 26.6 °F 18.2 °F 21.2 °F 80% 30.14 in 4.0 mi NW 8.1 mph - 0.01 in Snow Light Snow
7:33 AM 26.6 °F 18.2 °F 21.2 °F 80% 30.14 in 2.5 mi NNW 8.1 mph - 0.01 in Snow Light Snow
7:55 AM 26.1 °F 16.2 °F 21.9 °F 84% 30.19 in 4.0 mi NNW 10.4 mph - 0.01 in Snow Light Snow
8:19 AM 26.6 °F 16.2 °F 21.2 °F 80% 30.15 in 4.0 mi NNW 11.5 mph - 0.00 in Snow Light Snow
8:55 AM 27.0 °F 16.7 °F 23.0 °F 85% 30.20 in 5.0 mi NNW 11.5 mph - 0.00 in   Overcast
9:28 AM 26.6 °F 16.8 °F 23.0 °F 86% 30.16 in 1.8 mi North 10.4 mph - 0.00 in Snow Light Snow
9:55 AM 28.0 °F 18.6 °F 23.0 °F 81% 30.21 in 2.0 mi North 10.4 mph - 0.00 in Snow Light Snow
10:55 AM 28.0 °F 19.3 °F 23.0 °F 81% 30.22 in 4.0 mi NE 9.2 mph - 0.00 in Snow Light Snow
11:14 AM 28.4 °F 18.5 °F 23.0 °F 80% 30.18 in 9.0 mi NE 11.5 mph - 0.00 in   Overcast
11:55 AM 28.9 °F 19.2 °F 21.9 °F 75% 30.23 in 8.0 mi NE 11.5 mph - 0.00 in Snow Light Snow
12:55 PM 30.0 °F 22.4 °F 21.9 °F 72% 30.22 in 6.0 mi NNE 8.1 mph - 0.00 in Snow Light Snow
1:55 PM 28.9 °F 18.6 °F 21.0 °F 72% 30.22 in 9.0 mi NNE 12.7 mph - 0.00 in   Overcast
2:55 PM 28.9 °F 19.2 °F 21.9 °F 75% 30.23 in 6.0 mi NNE 11.5 mph - 0.00 in   Haze
3:34 PM 28.4 °F 18.5 °F 21.2 °F 74% 30.19 in 5.0 mi North 11.5 mph - 0.00 in   Haze
3:55 PM 28.0 °F 18.1 °F 21.9 °F 78% 30.25 in 5.0 mi North 11.5 mph - 0.00 in   Haze
4:55 PM 27.0 °F 15.6 °F 19.9 °F 75% 30.26 in 10.0 mi North 13.8 mph - N/A   Overcast
5:55 PM 27.0 °F 16.7 °F 19.9 °F 75% 30.27 in 10.0 mi North 11.5 mph - N/A   Overcast
6:55 PM 25.0 °F 15.5 °F 17.1 °F 72% 30.29 in 10.0 mi North 9.2 mph - N/A   Overcast
7:55 PM 25.0 °F 15.5 °F 18.0 °F 75% 30.30 in 10.0 mi North 9.2 mph - N/A   Overcast
8:55 PM 24.1 °F 14.4 °F 18.0 °F 77% 30.31 in 10.0 mi North 9.2 mph - N/A   Overcast
9:55 PM 24.1 °F 14.4 °F 18.0 °F 77% 30.31 in 10.0 mi North 9.2 mph - N/A   Overcast
10:55 PM 24.1 °F 13.1 °F 17.1 °F 75% 30.32 in 10.0 mi North 11.5 mph - N/A   Overcast
11:55 PM 24.1 °F 14.4 °F 17.1 °F 75% 30.32 in 10.0 mi North 9.2 mph - N/A   Overcast